date,time,SUV Intensity [MED/Hr],UV Index,Daily total [MED],Since Last [MED]
08/08/2022,00:11:22,0.000,0.0,0.0,0.0
08/08/2022,00:12:23,0.000,0.0,0.0,0.0
08/08/2022,00:13:39,0.000,0.0,0.0,0.0
08/08/2022,00:15:23,0.000,0.0,0.0,0.0
08/08/2022,00:16:23,0.000,0.0,0.0,0.0
08/08/2022,00:17:23,0.000,0.0,0.0,0.0
08/08/2022,00:18:31,-0.000,0.0,0.0,0.0
08/08/2022,00:19:23,-0.000,0.0,0.0,0.0
08/08/2022,00:20:23,0.000,0.0,0.0,0.0
08/08/2022,00:21:31,-0.000,0.0,0.0,0.0
08/08/2022,00:22:22,0.000,0.0,0.0,0.0
08/08/2022,00:23:22,0.000,0.0,0.0,0.0
08/08/2022,00:24:23,0.000,0.0,0.0,0.0
08/08/2022,00:25:23,-0.000,0.0,0.0,0.0
08/08/2022,00:26:22,0.000,0.0,0.0,0.0
08/08/2022,00:27:23,0.001,0.0,0.0,0.0
08/08/2022,00:28:22,0.000,0.0,0.0,0.0
08/08/2022,00:29:23,0.000,0.0,0.0,0.0
08/08/2022,00:30:22,0.000,0.0,0.0,0.0
08/08/2022,00:31:23,0.000,0.0,0.0,0.0
08/08/2022,00:32:23,0.000,0.0,0.0,0.0
08/08/2022,00:33:22,-0.000,0.0,0.0,0.0
08/08/2022,00:34:22,0.000,0.0,0.0,0.0
08/08/2022,00:35:22,0.000,0.0,0.0,0.0
08/08/2022,00:36:31,0.000,0.0,0.0,0.0
08/08/2022,00:37:22,0.000,0.0,0.0,0.0
08/08/2022,00:38:23,-0.000,0.0,0.0,0.0
08/08/2022,00:39:23,0.000,0.0,0.0,0.0
08/08/2022,00:40:22,0.000,0.0,0.0,0.0
08/08/2022,00:41:22,0.001,0.0,0.0,0.0
08/08/2022,00:42:23,0.000,0.0,0.0,0.0
08/08/2022,00:43:23,0.001,0.0,0.0,0.0
08/08/2022,00:44:31,-0.000,0.0,0.0,0.0
08/08/2022,00:45:23,-0.000,0.0,0.0,0.0
08/08/2022,00:46:23,0.000,0.0,0.0,0.0
08/08/2022,00:47:23,0.000,0.0,0.0,0.0
08/08/2022,00:48:16,-0.000,0.0,0.0,0.0
08/08/2022,00:49:23,0.000,0.0,0.0,0.0
08/08/2022,00:50:23,0.000,0.0,0.0,0.0
08/08/2022,00:51:23,0.000,0.0,0.0,0.0
08/08/2022,00:52:23,0.000,0.0,0.0,0.0
08/08/2022,00:53:22,-0.000,0.0,0.0,0.0
08/08/2022,00:54:22,0.000,0.0,0.0,0.0
08/08/2022,00:55:22,0.000,0.0,0.0,0.0
08/08/2022,00:56:23,0.000,0.0,0.0,0.0
08/08/2022,00:57:23,0.000,0.0,0.0,0.0
08/08/2022,00:58:23,0.000,0.0,0.0,0.0
08/08/2022,00:59:22,0.000,0.0,0.0,0.0
08/08/2022,01:00:23,0.000,0.0,0.0,0.0
08/08/2022,01:01:22,0.001,0.0,0.0,0.0
08/08/2022,01:02:23,0.000,0.0,0.0,0.0
08/08/2022,01:03:23,0.000,0.0,0.0,0.0
08/08/2022,01:04:24,0.000,0.0,0.0,0.0
08/08/2022,01:05:23,-0.000,0.0,0.0,0.0
08/08/2022,01:06:22,0.001,0.0,0.0,0.0
08/08/2022,01:07:22,0.000,0.0,0.0,0.0
08/08/2022,01:08:23,0.001,0.0,0.0,0.0
08/08/2022,01:09:22,-0.000,0.0,0.0,0.0
08/08/2022,01:10:31,0.000,0.0,0.0,0.0
08/08/2022,01:11:22,0.000,0.0,0.0,0.0
08/08/2022,01:12:23,0.000,0.0,0.0,0.0
08/08/2022,01:13:22,0.000,0.0,0.0,0.0
08/08/2022,01:14:23,0.000,0.0,0.0,0.0
08/08/2022,01:15:31,-0.000,0.0,0.0,0.0
08/08/2022,01:16:22,0.000,0.0,0.0,0.0
08/08/2022,01:17:23,0.001,0.0,0.0,0.0
08/08/2022,01:18:22,0.000,0.0,0.0,0.0
08/08/2022,01:19:22,0.000,0.0,0.0,0.0
08/08/2022,01:20:23,-0.000,0.0,0.0,0.0
08/08/2022,01:21:22,-0.000,0.0,0.0,0.0
08/08/2022,01:22:23,0.001,0.0,0.0,0.0
08/08/2022,01:23:22,-0.000,0.0,0.0,0.0
08/08/2022,01:24:23,0.000,0.0,0.0,0.0
08/08/2022,01:25:23,0.001,0.0,0.0,0.0
08/08/2022,01:26:23,0.001,0.0,0.0,0.0
08/08/2022,01:27:22,0.002,0.0,0.0,0.0
08/08/2022,01:28:23,0.001,0.0,0.0,0.0
08/08/2022,01:29:23,0.001,0.0,0.0,0.0
08/08/2022,01:30:23,0.001,0.0,0.0,0.0
08/08/2022,01:31:23,0.001,0.0,0.0,0.0
08/08/2022,01:32:22,0.001,0.0,0.0,0.0
08/08/2022,01:33:22,0.000,0.0,0.0,0.0
08/08/2022,01:34:23,0.000,0.0,0.0,0.0
08/08/2022,01:35:25,0.002,0.0,0.0,0.0
08/08/2022,01:36:22,0.001,0.0,0.0,0.0
08/08/2022,01:37:22,0.001,0.0,0.0,0.0
08/08/2022,01:38:23,0.001,0.0,0.0,0.0
08/08/2022,01:39:31,0.001,0.0,0.0,0.0
08/08/2022,01:40:22,-0.000,0.0,0.0,0.0
08/08/2022,01:41:31,0.001,0.0,0.0,0.0
08/08/2022,01:42:23,0.001,0.0,0.0,0.0
08/08/2022,01:43:23,0.001,0.0,0.0,0.0
08/08/2022,01:44:31,0.001,0.0,0.0,0.0
08/08/2022,01:45:22,0.001,0.0,0.0,0.0
08/08/2022,01:46:22,0.001,0.0,0.0,0.0
08/08/2022,01:47:23,0.002,0.0,0.0,0.0
08/08/2022,01:48:24,0.001,0.0,0.0,0.0
08/08/2022,01:49:23,0.001,0.0,0.0,0.0
08/08/2022,01:50:23,0.000,0.0,0.0,0.0
08/08/2022,01:51:23,0.001,0.0,0.0,0.0
08/08/2022,01:52:23,-0.000,0.0,0.0,0.0
08/08/2022,01:53:23,0.001,0.0,0.0,0.0
08/08/2022,01:54:23,0.001,0.0,0.0,0.0
08/08/2022,01:55:22,0.001,0.0,0.0,0.0
08/08/2022,01:56:23,0.001,0.0,0.0,0.0
08/08/2022,01:57:22,0.000,0.0,0.0,0.0
08/08/2022,01:58:22,0.001,0.0,0.0,0.0
08/08/2022,01:59:31,-0.000,0.0,0.0,0.0
08/08/2022,02:00:23,0.001,0.0,0.0,0.0
08/08/2022,02:01:23,0.001,0.0,0.0,0.0
08/08/2022,02:02:23,0.001,0.0,0.0,0.0
08/08/2022,02:03:22,-0.000,0.0,0.0,0.0
08/08/2022,02:04:23,0.001,0.0,0.0,0.0
08/08/2022,02:05:23,0.001,0.0,0.0,0.0
08/08/2022,02:06:22,-0.000,0.0,0.0,0.0
08/08/2022,02:07:22,0.001,0.0,0.0,0.0
08/08/2022,02:08:22,0.001,0.0,0.0,0.0
08/08/2022,02:09:23,0.002,0.0,0.0,0.0
08/08/2022,02:10:31,0.000,0.0,0.0,0.0
08/08/2022,02:11:23,0.001,0.0,0.0,0.0
08/08/2022,02:12:23,0.001,0.0,0.0,0.0
08/08/2022,02:13:23,0.001,0.0,0.0,0.0
08/08/2022,02:14:23,0.000,0.0,0.0,0.0
08/08/2022,02:15:31,0.001,0.0,0.0,0.0
08/08/2022,02:16:31,0.001,0.0,0.0,0.0
08/08/2022,02:17:31,0.001,0.0,0.0,0.0
08/08/2022,02:18:22,0.001,0.0,0.0,0.0
08/08/2022,02:19:23,0.000,0.0,0.0,0.0
08/08/2022,02:20:23,0.001,0.0,0.0,0.0
08/08/2022,02:21:22,0.001,0.0,0.0,0.0
08/08/2022,02:22:22,0.000,0.0,0.0,0.0
08/08/2022,02:23:23,0.000,0.0,0.0,0.0
08/08/2022,02:24:22,0.001,0.0,0.0,0.0
08/08/2022,02:25:22,0.001,0.0,0.0,0.0
08/08/2022,02:26:23,0.001,0.0,0.0,0.0
08/08/2022,02:27:23,0.000,0.0,0.0,0.0
08/08/2022,02:28:23,0.001,0.0,0.0,0.0
08/08/2022,02:29:22,0.002,0.0,0.0,0.0
08/08/2022,02:30:23,0.001,0.0,0.0,0.0
08/08/2022,02:31:23,0.001,0.0,0.0,0.0
08/08/2022,02:32:23,-0.000,0.0,0.0,0.0
08/08/2022,02:33:24,0.000,0.0,0.0,0.0
08/08/2022,02:34:22,0.002,0.0,0.0,0.0
08/08/2022,02:35:22,0.000,0.0,0.0,0.0
08/08/2022,02:36:23,-0.000,0.0,0.0,0.0
08/08/2022,02:37:22,0.000,0.0,0.0,0.0
08/08/2022,02:38:23,0.002,0.0,0.0,0.0
08/08/2022,02:39:31,0.002,0.0,0.0,0.0
08/08/2022,02:40:22,0.001,0.0,0.0,0.0
08/08/2022,02:41:22,0.001,0.0,0.0,0.0
08/08/2022,02:42:31,0.001,0.0,0.0,0.0
08/08/2022,02:43:23,0.002,0.0,0.0,0.0
08/08/2022,02:44:23,0.000,0.0,0.0,0.0
08/08/2022,02:45:23,0.001,0.0,0.0,0.0
08/08/2022,02:46:22,0.002,0.0,0.0,0.0
08/08/2022,02:47:23,0.001,0.0,0.0,0.0
08/08/2022,02:48:22,-0.000,0.0,0.0,0.0
08/08/2022,02:49:23,0.000,0.0,0.0,0.0
08/08/2022,02:50:23,-0.000,0.0,0.0,0.0
08/08/2022,02:51:23,0.001,0.0,0.0,0.0
08/08/2022,02:52:23,0.001,0.0,0.0,0.0
08/08/2022,02:53:23,0.001,0.0,0.0,0.0
08/08/2022,02:54:23,0.001,0.0,0.0,0.0
08/08/2022,02:55:23,0.001,0.0,0.0,0.0
08/08/2022,02:56:23,0.000,0.0,0.0,0.0
08/08/2022,02:57:23,0.001,0.0,0.0,0.0
08/08/2022,02:58:22,0.001,0.0,0.0,0.0
08/08/2022,02:59:23,0.001,0.0,0.0,0.0
08/08/2022,03:00:31,0.001,0.0,0.0,0.0
08/08/2022,03:01:22,0.001,0.0,0.0,0.0
08/08/2022,03:02:25,0.000,0.0,0.0,0.0
08/08/2022,03:03:31,0.001,0.0,0.0,0.0
08/08/2022,03:04:14,0.001,0.0,0.0,0.0
08/08/2022,03:05:24,0.001,0.0,0.0,0.0
08/08/2022,03:06:22,0.001,0.0,0.0,0.0
08/08/2022,03:07:23,0.001,0.0,0.0,0.0
08/08/2022,03:08:23,0.000,0.0,0.0,0.0
08/08/2022,03:09:23,0.001,0.0,0.0,0.0
08/08/2022,03:10:22,0.001,0.0,0.0,0.0
08/08/2022,03:11:23,0.001,0.0,0.0,0.0
08/08/2022,03:12:23,0.001,0.0,0.0,0.0
08/08/2022,03:13:23,0.001,0.0,0.0,0.0
08/08/2022,03:14:23,0.000,0.0,0.0,0.0
08/08/2022,03:15:23,-0.000,0.0,0.0,0.0
08/08/2022,03:16:22,0.001,0.0,0.0,0.0
08/08/2022,03:17:23,0.001,0.0,0.0,0.0
08/08/2022,03:18:23,0.002,0.0,0.0,0.0
08/08/2022,03:19:22,0.001,0.0,0.0,0.0
08/08/2022,03:20:22,0.001,0.0,0.0,0.0
08/08/2022,03:21:31,0.002,0.0,0.0,0.0
08/08/2022,03:22:22,0.001,0.0,0.0,0.0
08/08/2022,03:23:32,0.002,0.0,0.0,0.0
08/08/2022,03:24:21,0.001,0.0,0.0,0.0
08/08/2022,03:25:22,0.000,0.0,0.0,0.0
08/08/2022,03:26:31,0.001,0.0,0.0,0.0
08/08/2022,03:27:23,0.001,0.0,0.0,0.0
08/08/2022,03:28:39,0.000,0.0,0.0,0.0
08/08/2022,03:30:24,0.001,0.0,0.0,0.0
08/08/2022,03:31:31,0.001,0.0,0.0,0.0
08/08/2022,03:32:31,0.002,0.0,0.0,0.0
08/08/2022,03:33:23,0.001,0.0,0.0,0.0
08/08/2022,03:34:23,0.000,0.0,0.0,0.0
08/08/2022,03:35:23,0.002,0.0,0.0,0.0
08/08/2022,03:36:23,0.001,0.0,0.0,0.0
08/08/2022,03:37:23,0.001,0.0,0.0,0.0
08/08/2022,03:38:23,0.002,0.0,0.0,0.0
08/08/2022,03:39:22,0.001,0.0,0.0,0.0
08/08/2022,03:40:23,0.001,0.0,0.0,0.0
08/08/2022,03:41:22,0.001,0.0,0.0,0.0
08/08/2022,03:42:22,0.001,0.0,0.0,0.0
08/08/2022,03:43:23,0.002,0.0,0.0,0.0
08/08/2022,03:44:31,0.002,0.0,0.0,0.0
08/08/2022,03:45:23,0.001,0.0,0.0,0.0
08/08/2022,03:46:23,0.001,0.0,0.0,0.0
08/08/2022,03:47:31,0.001,0.0,0.0,0.0
08/08/2022,03:48:23,0.001,0.0,0.0,0.0
08/08/2022,03:49:23,0.001,0.0,0.0,0.0
08/08/2022,03:50:23,0.002,0.0,0.0,0.0
08/08/2022,03:51:23,0.001,0.0,0.0,0.0
08/08/2022,03:52:22,0.000,0.0,0.0,0.0
08/08/2022,03:53:22,0.001,0.0,0.0,0.0
08/08/2022,03:54:23,0.000,0.0,0.0,0.0
08/08/2022,03:55:23,0.001,0.0,0.0,0.0
08/08/2022,03:56:23,0.001,0.0,0.0,0.0
08/08/2022,03:57:22,0.001,0.0,0.0,0.0
08/08/2022,03:58:24,0.000,0.0,0.0,0.0
08/08/2022,03:59:22,0.001,0.0,0.0,0.0
08/08/2022,04:00:23,0.001,0.0,0.0,0.0
08/08/2022,04:01:23,0.001,0.0,0.0,0.0
08/08/2022,04:02:23,0.001,0.0,0.0,0.0
08/08/2022,04:03:23,0.001,0.0,0.0,0.0
08/08/2022,04:04:23,0.001,0.0,0.0,0.0
08/08/2022,04:05:23,0.002,0.0,0.0,0.0
08/08/2022,04:06:23,0.001,0.0,0.0,0.0
08/08/2022,04:07:31,0.002,0.0,0.0,0.0
08/08/2022,04:08:22,0.001,0.0,0.0,0.0
08/08/2022,04:09:23,0.001,0.0,0.0,0.0
08/08/2022,04:10:31,0.001,0.0,0.0,0.0
08/08/2022,04:11:23,0.001,0.0,0.0,0.0
08/08/2022,04:12:23,0.001,0.0,0.0,0.0
08/08/2022,04:13:22,0.002,0.0,0.0,0.0
08/08/2022,04:14:22,0.001,0.0,0.0,0.0
08/08/2022,04:15:23,0.001,0.0,0.0,0.0
08/08/2022,04:16:22,0.001,0.0,0.0,0.0
08/08/2022,04:17:23,0.001,0.0,0.0,0.0
08/08/2022,04:18:23,0.002,0.0,0.0,0.0
08/08/2022,04:19:23,0.002,0.0,0.0,0.0
08/08/2022,04:20:23,0.002,0.0,0.0,0.0
08/08/2022,04:21:23,0.002,0.0,0.0,0.0
08/08/2022,04:22:23,0.002,0.0,0.0,0.0
08/08/2022,04:23:23,0.002,0.0,0.0,0.0
08/08/2022,04:24:23,0.003,0.0,0.0,0.0
08/08/2022,04:25:23,0.001,0.0,0.0,0.0
08/08/2022,04:26:23,0.001,0.0,0.0,0.0
08/08/2022,04:27:23,0.003,0.0,0.0,0.0
08/08/2022,04:28:23,0.003,0.0,0.0,0.0
08/08/2022,04:29:23,0.002,0.0,0.0,0.0
08/08/2022,04:30:23,0.003,0.0,0.0,0.0
08/08/2022,04:31:32,0.001,0.0,0.0,0.0
08/08/2022,04:32:23,0.003,0.0,0.0,0.0
08/08/2022,04:33:23,0.002,0.0,0.0,0.0
08/08/2022,04:34:23,0.002,0.0,0.0,0.0
08/08/2022,04:35:22,0.002,0.0,0.0,0.0
08/08/2022,04:36:23,0.003,0.0,0.0,0.0
08/08/2022,04:37:22,0.002,0.0,0.0,0.0
08/08/2022,04:38:23,0.002,0.0,0.0,0.0
08/08/2022,04:39:23,0.003,0.0,0.0,0.0
08/08/2022,04:40:23,0.003,0.0,0.0,0.0
08/08/2022,04:41:23,0.002,0.0,0.0,0.0
08/08/2022,04:42:23,0.002,0.0,0.0,0.0
08/08/2022,04:43:23,0.003,0.0,0.0,0.0
08/08/2022,04:44:23,0.003,0.0,0.0,0.0
08/08/2022,04:45:23,0.002,0.0,0.0,0.0
08/08/2022,04:46:32,0.004,0.0,0.0,0.0
08/08/2022,04:47:22,0.003,0.0,0.0,0.0
08/08/2022,04:48:23,0.004,0.0,0.0,0.0
08/08/2022,04:49:23,0.004,0.0,0.0,0.0
08/08/2022,04:50:23,0.004,0.0,0.0,0.0
08/08/2022,04:51:23,0.004,0.0,0.0,0.0
08/08/2022,04:52:23,0.004,0.0,0.0,0.0
08/08/2022,04:53:23,0.003,0.0,0.0,0.0
08/08/2022,04:54:23,0.004,0.0,0.0,0.0
08/08/2022,04:55:31,0.005,0.0,0.0,0.0
08/08/2022,04:56:23,0.004,0.0,0.0,0.0
08/08/2022,04:57:23,0.006,0.0,0.0,0.0
08/08/2022,04:58:23,0.005,0.0,0.0,0.0
08/08/2022,04:59:23,0.007,0.0,0.0,0.0
08/08/2022,05:00:23,0.006,0.0,0.0,0.0
08/08/2022,05:01:31,0.006,0.0,0.0,0.0
08/08/2022,05:02:22,0.007,0.0,0.0,0.0
08/08/2022,05:03:23,0.006,0.0,0.0,0.0
08/08/2022,05:04:23,0.008,0.0,0.001,0.001
08/08/2022,05:05:23,0.008,0.0,0.001,0.0
08/08/2022,05:06:25,0.008,0.0,0.001,0.0
08/08/2022,05:07:22,0.008,0.0,0.001,0.0
08/08/2022,05:08:23,0.009,0.0,0.001,0.0
08/08/2022,05:09:23,0.010,0.0,0.001,0.0
08/08/2022,05:10:23,0.010,0.0,0.001,0.0
08/08/2022,05:11:23,0.010,0.0,0.002,0.001
08/08/2022,05:12:23,0.010,0.0,0.002,0.0
08/08/2022,05:13:23,0.011,0.0,0.002,0.0
08/08/2022,05:14:23,0.011,0.0,0.002,0.0
08/08/2022,05:15:23,0.011,0.0,0.002,0.0
08/08/2022,05:16:23,0.012,0.0,0.002,0.0
08/08/2022,05:17:23,0.012,0.0,0.003,0.001
08/08/2022,05:18:23,0.014,0.0,0.003,0.0
08/08/2022,05:19:23,0.014,0.0,0.003,0.0
08/08/2022,05:20:23,0.014,0.0,0.003,0.0
08/08/2022,05:21:32,0.015,0.0,0.004,0.001
08/08/2022,05:22:23,0.015,0.0,0.004,0.0
08/08/2022,05:23:23,0.015,0.0,0.004,0.0
08/08/2022,05:24:31,0.016,0.0,0.004,0.0
08/08/2022,05:25:24,0.017,0.0,0.005,0.001
08/08/2022,05:26:22,0.017,0.0,0.005,0.0
08/08/2022,05:27:32,0.018,0.0,0.005,0.0
08/08/2022,05:28:23,0.018,0.0,0.006,0.001
08/08/2022,05:29:23,0.020,0.0,0.006,0.0
08/08/2022,05:30:23,0.020,0.0,0.006,0.0
08/08/2022,05:31:23,0.021,0.0,0.006,0.0
08/08/2022,05:32:23,0.021,0.0,0.007,0.001
08/08/2022,05:33:23,0.021,0.0,0.007,0.0
08/08/2022,05:34:23,0.023,0.0,0.008,0.001
08/08/2022,05:35:23,0.024,0.0,0.008,0.0
08/08/2022,05:36:23,0.024,0.0,0.008,0.0
08/08/2022,05:37:23,0.025,0.0,0.009,0.001
08/08/2022,05:38:23,0.026,0.0,0.009,0.0
08/08/2022,05:39:31,0.027,0.0,0.01,0.001
08/08/2022,05:40:23,0.027,0.0,0.01,0.0
08/08/2022,05:41:23,0.028,0.0,0.011,0.001
08/08/2022,05:42:23,0.029,0.0,0.011,0.0
08/08/2022,05:43:23,0.030,0.0,0.011,0.0
08/08/2022,05:44:23,0.030,0.0,0.012,0.001
08/08/2022,05:45:23,0.032,0.0,0.013,0.001
08/08/2022,05:46:23,0.033,0.0,0.013,0.0
08/08/2022,05:47:23,0.034,0.0,0.014,0.001
08/08/2022,05:48:23,0.035,0.0,0.014,0.0
08/08/2022,05:49:23,0.037,0.0,0.015,0.001
08/08/2022,05:50:23,0.036,0.0,0.015,0.0
08/08/2022,05:51:23,0.038,0.0,0.016,0.001
08/08/2022,05:52:23,0.040,0.0,0.017,0.001
08/08/2022,05:53:23,0.040,0.0,0.017,0.0
08/08/2022,05:54:23,0.041,0.0,0.018,0.001
08/08/2022,05:55:23,0.042,0.0,0.019,0.001
08/08/2022,05:56:23,0.044,0.0,0.019,0.0
08/08/2022,05:57:23,0.046,0.0,0.02,0.001
08/08/2022,05:58:23,0.046,0.0,0.021,0.001
08/08/2022,05:59:40,0.048,0.0,0.022,0.001
08/08/2022,06:01:24,0.050,0.0,0.023,0.001
08/08/2022,06:02:23,0.052,0.0,0.024,0.001
08/08/2022,06:03:32,0.052,0.0,0.025,0.001
08/08/2022,06:04:23,0.054,0.0,0.026,0.001
08/08/2022,06:05:23,0.056,0.0,0.027,0.001
08/08/2022,06:06:23,0.056,0.0,0.028,0.001
08/08/2022,06:07:23,0.059,0.0,0.029,0.001
08/08/2022,06:08:23,0.060,0.0,0.03,0.001
08/08/2022,06:09:23,0.062,0.0,0.031,0.001
08/08/2022,06:10:23,0.063,0.0,0.032,0.001
08/08/2022,06:11:25,0.065,0.0,0.033,0.001
08/08/2022,06:12:23,0.066,0.0,0.034,0.001
08/08/2022,06:13:23,0.068,0.0,0.035,0.001
08/08/2022,06:14:23,0.070,0.0,0.036,0.001
08/08/2022,06:15:31,0.071,0.0,0.037,0.001
08/08/2022,06:16:23,0.071,0.0,0.038,0.001
08/08/2022,06:17:23,0.074,0.0,0.04,0.002
08/08/2022,06:18:31,0.076,0.0,0.041,0.001
08/08/2022,06:19:23,0.078,0.0,0.042,0.001
08/08/2022,06:20:23,0.080,0.0,0.044,0.002
08/08/2022,06:21:23,0.081,0.0,0.045,0.001
08/08/2022,06:22:23,0.083,0.0,0.046,0.001
08/08/2022,06:23:23,0.084,0.0,0.048,0.002
08/08/2022,06:24:23,0.087,0.0,0.049,0.001
08/08/2022,06:25:23,0.090,0.0,0.051,0.002
08/08/2022,06:26:23,0.091,0.0,0.052,0.001
08/08/2022,06:27:40,0.093,0.0,0.054,0.002
08/08/2022,06:29:24,0.097,0.0,0.057,0.003
08/08/2022,06:30:23,0.100,0.0,0.058,0.001
08/08/2022,06:31:23,0.104,0.0,0.06,0.002
08/08/2022,06:32:23,0.107,0.0,0.062,0.002
08/08/2022,06:33:23,0.109,0.0,0.064,0.002
08/08/2022,06:34:23,0.112,0.0,0.066,0.002
08/08/2022,06:35:23,0.115,0.0,0.067,0.001
08/08/2022,06:36:31,0.118,0.0,0.07,0.003
08/08/2022,06:37:23,0.119,0.0,0.071,0.001
08/08/2022,06:38:37,0.123,0.0,0.074,0.003
08/08/2022,06:40:36,0.128,0.0,0.078,0.004
08/08/2022,06:42:24,0.133,0.0,0.082,0.004
08/08/2022,06:43:23,0.135,0.0,0.084,0.002
08/08/2022,06:44:23,0.138,0.0,0.086,0.002
08/08/2022,06:45:23,0.141,0.0,0.089,0.003
08/08/2022,06:46:23,0.143,0.0,0.091,0.002
08/08/2022,06:47:23,0.145,0.0,0.093,0.002
08/08/2022,06:48:23,0.149,0.0,0.096,0.003
08/08/2022,06:49:23,0.152,0.0,0.098,0.002
08/08/2022,06:50:23,0.155,0.0,0.101,0.003
08/08/2022,06:51:23,0.159,0.0,0.104,0.003
08/08/2022,06:52:24,0.162,0.0,0.106,0.002
08/08/2022,06:53:23,0.165,0.0,0.109,0.003
08/08/2022,06:54:23,0.168,0.0,0.112,0.003
08/08/2022,06:55:23,0.172,0.0,0.115,0.003
08/08/2022,06:56:23,0.175,0.0,0.117,0.002
08/08/2022,06:57:32,0.178,0.0,0.121,0.004
08/08/2022,06:58:23,0.182,0.0,0.123,0.002
08/08/2022,06:59:31,0.187,0.0,0.127,0.004
08/08/2022,07:00:24,0.188,0.0,0.13,0.003
08/08/2022,07:01:23,0.192,0.0,0.133,0.003
08/08/2022,07:02:23,0.196,0.0,0.136,0.003
08/08/2022,07:03:23,0.199,0.0,0.139,0.003
08/08/2022,07:04:23,0.203,0.0,0.143,0.004
08/08/2022,07:05:23,0.207,0.0,0.146,0.003
08/08/2022,07:06:23,0.212,0.0,0.15,0.004
08/08/2022,07:07:23,0.214,0.0,0.153,0.003
08/08/2022,07:08:23,0.218,1.0,0.157,0.004
08/08/2022,07:09:23,0.222,1.0,0.16,0.003
08/08/2022,07:10:23,0.226,1.0,0.164,0.004
08/08/2022,07:11:23,0.230,1.0,0.168,0.004
08/08/2022,07:12:24,0.235,1.0,0.172,0.004
08/08/2022,07:13:23,0.239,1.0,0.176,0.004
08/08/2022,07:14:23,0.243,1.0,0.18,0.004
08/08/2022,07:15:32,0.248,1.0,0.184,0.004
08/08/2022,07:16:23,0.252,1.0,0.188,0.004
08/08/2022,07:17:32,0.257,1.0,0.193,0.005
08/08/2022,07:18:23,0.261,1.0,0.197,0.004
08/08/2022,07:19:23,0.265,1.0,0.201,0.004
08/08/2022,07:20:24,0.270,1.0,0.205,0.004
08/08/2022,07:21:24,0.274,1.0,0.21,0.005
08/08/2022,07:22:23,0.278,1.0,0.215,0.005
08/08/2022,07:23:31,0.284,1.0,0.22,0.005
08/08/2022,07:24:23,0.288,1.0,0.224,0.004
08/08/2022,07:25:23,0.292,1.0,0.229,0.005
08/08/2022,07:26:32,0.296,1.0,0.234,0.005
08/08/2022,07:27:23,0.300,1.0,0.239,0.005
08/08/2022,07:28:23,0.305,1.0,0.244,0.005
08/08/2022,07:29:23,0.310,1.0,0.249,0.005
08/08/2022,07:30:23,0.315,1.0,0.254,0.005
08/08/2022,07:31:23,0.320,1.0,0.259,0.005
08/08/2022,07:32:23,0.324,1.0,0.265,0.006
08/08/2022,07:33:24,0.329,1.0,0.27,0.005
08/08/2022,07:34:23,0.334,1.0,0.276,0.006
08/08/2022,07:35:23,0.340,1.0,0.281,0.005
08/08/2022,07:36:23,0.344,1.0,0.287,0.006
08/08/2022,07:37:23,0.349,1.0,0.293,0.006
08/08/2022,07:38:31,0.355,1.0,0.299,0.006
08/08/2022,07:39:23,0.360,1.0,0.304,0.005
08/08/2022,07:40:23,0.367,1.0,0.311,0.007
08/08/2022,07:41:31,0.372,1.0,0.318,0.007
08/08/2022,07:42:23,0.377,1.0,0.323,0.005
08/08/2022,07:43:23,0.384,1.0,0.329,0.006
08/08/2022,07:44:23,0.390,1.0,0.336,0.007
08/08/2022,07:45:23,0.396,1.0,0.342,0.006
08/08/2022,07:46:23,0.401,1.0,0.349,0.007
08/08/2022,07:47:23,0.407,1.0,0.356,0.007
08/08/2022,07:48:24,0.414,1.0,0.363,0.007
08/08/2022,07:49:23,0.420,1.0,0.369,0.006
08/08/2022,07:50:23,0.427,1.0,0.376,0.007
08/08/2022,07:51:24,0.433,1.0,0.384,0.008
08/08/2022,07:52:24,0.440,1.0,0.391,0.007
08/08/2022,07:53:23,0.446,1.0,0.398,0.007
08/08/2022,07:54:24,0.450,1.0,0.406,0.008
08/08/2022,07:55:23,0.457,1.0,0.413,0.007
08/08/2022,07:56:23,0.465,1.0,0.421,0.008
08/08/2022,07:57:23,0.471,1.0,0.429,0.008
08/08/2022,07:58:23,0.477,1.0,0.437,0.008
08/08/2022,07:59:32,0.484,1.0,0.446,0.009
08/08/2022,08:00:25,0.489,1.0,0.453,0.007
08/08/2022,08:01:23,0.496,1.0,0.461,0.008
08/08/2022,08:02:32,0.503,1.0,0.471,0.01
08/08/2022,08:03:25,0.509,1.0,0.478,0.007
08/08/2022,08:04:24,0.517,1.0,0.486,0.008
08/08/2022,08:05:23,0.524,1.0,0.495,0.009
08/08/2022,08:06:23,0.526,1.0,0.504,0.009
08/08/2022,08:07:23,0.534,1.0,0.512,0.008
08/08/2022,08:08:23,0.543,1.0,0.521,0.009
08/08/2022,08:09:23,0.550,1.0,0.53,0.009
08/08/2022,08:10:23,0.558,1.0,0.54,0.01
08/08/2022,08:11:23,0.561,1.0,0.549,0.009
08/08/2022,08:12:23,0.570,1.0,0.559,0.01
08/08/2022,08:13:23,0.577,1.0,0.568,0.009
08/08/2022,08:14:32,0.586,1.0,0.579,0.011
08/08/2022,08:15:23,0.590,1.0,0.588,0.009
08/08/2022,08:16:23,0.600,1.0,0.598,0.01
08/08/2022,08:17:23,0.606,1.0,0.607,0.009
08/08/2022,08:18:23,0.611,1.0,0.618,0.011
08/08/2022,08:19:23,0.619,1.0,0.628,0.01
08/08/2022,08:20:24,0.627,1.0,0.639,0.011
08/08/2022,08:21:23,0.634,1.0,0.649,0.01
08/08/2022,08:22:24,0.642,1.0,0.66,0.011
08/08/2022,08:23:23,0.650,1.0,0.67,0.01
08/08/2022,08:24:23,0.658,2.0,0.681,0.011
08/08/2022,08:25:23,0.663,2.0,0.692,0.011
08/08/2022,08:26:23,0.671,2.0,0.703,0.011
08/08/2022,08:27:23,0.677,2.0,0.714,0.011
08/08/2022,08:28:23,0.685,2.0,0.726,0.012
08/08/2022,08:29:23,0.693,2.0,0.737,0.011
08/08/2022,08:30:23,0.700,2.0,0.749,0.012
08/08/2022,08:31:23,0.708,2.0,0.76,0.011
08/08/2022,08:32:32,0.717,2.0,0.774,0.014
08/08/2022,08:33:23,0.723,2.0,0.785,0.011
08/08/2022,08:34:23,0.729,2.0,0.797,0.012
08/08/2022,08:35:32,0.737,2.0,0.811,0.014
08/08/2022,08:36:23,0.742,2.0,0.821,0.01
08/08/2022,08:37:32,0.749,2.0,0.835,0.014
08/08/2022,08:38:24,0.758,2.0,0.846,0.011
08/08/2022,08:39:23,0.768,2.0,0.859,0.013
08/08/2022,08:40:23,0.777,2.0,0.872,0.013
08/08/2022,08:41:25,0.787,2.0,0.885,0.013
08/08/2022,08:42:23,0.793,2.0,0.898,0.013
08/08/2022,08:43:23,0.801,2.0,0.911,0.013
08/08/2022,08:44:24,0.810,2.0,0.925,0.014
08/08/2022,08:45:24,0.817,2.0,0.938,0.013
08/08/2022,08:46:24,0.822,2.0,0.952,0.014
08/08/2022,08:47:23,0.831,2.0,0.966,0.014
08/08/2022,08:48:24,0.837,2.0,0.98,0.014
08/08/2022,08:49:40,0.851,2.0,0.998,0.018
08/08/2022,08:51:24,0.868,2.0,1.022,0.024
08/08/2022,08:52:23,0.875,2.0,1.036,0.014
08/08/2022,08:53:23,0.882,2.0,1.052,0.016
08/08/2022,08:54:23,0.891,2.0,1.066,0.014
08/08/2022,08:55:24,0.899,2.0,1.081,0.015
08/08/2022,08:56:31,0.909,2.0,1.098,0.017
08/08/2022,08:57:23,0.916,2.0,1.111,0.013
08/08/2022,08:58:31,0.927,2.0,1.129,0.018
08/08/2022,08:59:23,0.936,2.0,1.142,0.013
08/08/2022,09:00:23,0.941,2.0,1.158,0.016
08/08/2022,09:01:33,0.946,2.0,1.176,0.018
08/08/2022,09:02:22,0.949,2.0,1.189,0.013
08/08/2022,09:03:23,0.954,2.0,1.205,0.016
08/08/2022,09:04:23,0.962,2.0,1.221,0.016
08/08/2022,09:05:24,0.968,2.0,1.237,0.016
08/08/2022,09:06:24,0.984,2.0,1.254,0.017
08/08/2022,09:07:24,0.994,2.0,1.27,0.016
08/08/2022,09:08:23,1.003,2.0,1.287,0.017
08/08/2022,09:09:25,1.008,2.0,1.304,0.017
08/08/2022,09:10:23,1.017,2.0,1.32,0.016
08/08/2022,09:11:23,1.022,2.0,1.338,0.018
08/08/2022,09:12:23,1.014,2.0,1.354,0.016
08/08/2022,09:13:32,1.020,2.0,1.374,0.02
08/08/2022,09:14:23,1.039,2.0,1.389,0.015
08/08/2022,09:15:24,1.048,2.0,1.406,0.017
08/08/2022,09:16:23,1.047,2.0,1.423,0.017
08/08/2022,09:17:23,1.051,2.0,1.441,0.018
08/08/2022,09:18:23,1.063,2.0,1.459,0.018
08/08/2022,09:19:23,1.041,2.0,1.476,0.017
08/08/2022,09:20:23,1.043,2.0,1.493,0.017
08/08/2022,09:21:23,1.077,2.0,1.511,0.018
08/08/2022,09:22:23,1.081,2.0,1.528,0.017
08/08/2022,09:23:23,1.096,3.0,1.547,0.019
08/08/2022,09:24:24,1.107,3.0,1.566,0.019
08/08/2022,09:25:23,1.119,3.0,1.584,0.018
08/08/2022,09:26:23,1.127,3.0,1.602,0.018
08/08/2022,09:27:24,1.137,3.0,1.622,0.02
08/08/2022,09:28:23,1.150,3.0,1.641,0.019
08/08/2022,09:29:24,1.153,3.0,1.66,0.019
08/08/2022,09:30:24,1.165,3.0,1.679,0.019
08/08/2022,09:31:23,1.172,3.0,1.699,0.02
08/08/2022,09:32:24,1.185,3.0,1.718,0.019
08/08/2022,09:33:23,1.189,3.0,1.738,0.02
08/08/2022,09:34:24,1.198,3.0,1.758,0.02
08/08/2022,09:35:23,1.210,3.0,1.778,0.02
08/08/2022,09:36:36,1.226,3.0,1.803,0.025
08/08/2022,09:38:24,1.240,3.0,1.839,0.036
08/08/2022,09:39:32,1.257,3.0,1.863,0.024
08/08/2022,09:40:24,1.265,3.0,1.881,0.018
08/08/2022,09:41:24,1.272,3.0,1.902,0.021
08/08/2022,09:42:23,1.278,3.0,1.924,0.022
08/08/2022,09:43:24,1.285,3.0,1.945,0.021
08/08/2022,09:44:24,1.294,3.0,1.967,0.022
08/08/2022,09:45:24,1.304,3.0,1.988,0.021
08/08/2022,09:46:23,1.313,3.0,2.01,0.022
08/08/2022,09:47:23,1.322,3.0,2.032,0.022
08/08/2022,09:48:23,1.331,3.0,2.054,0.022
08/08/2022,09:49:23,1.341,3.0,2.076,0.022
08/08/2022,09:50:24,1.347,3.0,2.099,0.023
08/08/2022,09:51:24,1.352,3.0,2.121,0.022
08/08/2022,09:52:23,1.357,3.0,2.143,0.022
08/08/2022,09:53:24,1.371,3.0,2.167,0.024
08/08/2022,09:54:23,1.374,3.0,2.189,0.022
08/08/2022,09:55:23,1.377,3.0,2.212,0.023
08/08/2022,09:56:23,1.391,3.0,2.235,0.023
08/08/2022,09:57:23,1.400,3.0,2.259,0.024
08/08/2022,09:58:23,1.406,3.0,2.281,0.022
08/08/2022,09:59:23,1.417,3.0,2.306,0.025
08/08/2022,10:00:23,1.419,3.0,2.329,0.023
08/08/2022,10:01:23,1.432,3.0,2.353,0.024
08/08/2022,10:02:32,1.440,3.0,2.38,0.027
08/08/2022,10:03:23,1.448,3.0,2.401,0.021
08/08/2022,10:04:23,1.453,3.0,2.425,0.024
08/08/2022,10:05:23,1.462,3.0,2.449,0.024
08/08/2022,10:06:24,1.469,3.0,2.474,0.025
08/08/2022,10:07:24,1.482,3.0,2.498,0.024
08/08/2022,10:08:23,1.485,3.0,2.522,0.024
08/08/2022,10:09:24,1.489,3.0,2.548,0.026
08/08/2022,10:10:23,1.495,3.0,2.573,0.025
08/08/2022,10:11:24,1.513,3.0,2.598,0.025
08/08/2022,10:12:23,1.528,4.0,2.623,0.025
08/08/2022,10:13:24,1.543,4.0,2.649,0.026
08/08/2022,10:14:23,1.550,4.0,2.674,0.025
08/08/2022,10:15:23,1.557,4.0,2.7,0.026
08/08/2022,10:16:23,1.567,4.0,2.726,0.026
08/08/2022,10:17:32,1.570,4.0,2.756,0.03